sat.trackr.live / text

‹ back to catalog

HAIYANG-1D

NORAD 45721 · 2020-036A

PAYLOAD ACTIVE UNKNOWN

§ Identity

Operator
Country
PRC
Launch date
2020-06-10
Launch site
TAISC
Launch vehicle
Mass (kg)
RCS (m²)

External: N2YO · Heavens-Above · Gunter

§ Orbital elements

Epoch: 2026-09-20T03:12:56.321280Z

Period
100.40 min
Inclination
98.4606°
Eccentricity
0.0001746
Mean motion
14.34199211 rev/d
Perigee alt
776.5 km
Apogee alt
779.0 km
Semi-major
7,155.9 km
B*
6.0619e-5
RAAN
202.7710°
Arg perigee
206.1973°
Mean anomaly
153.9124°
Rev number
32,858

§ Raw data

HAIYANG-1D1 45721U 20036A   26263.13398520  .00000127  00000+0  60619-4 0  99952 45721  98.4606 202.7710 0001746 206.1973 153.9124 14.34199211328585

JSON: /api/v1/satellites/45721 · /tle

For live sub-satellite position, see the globe view (requires WebGL).

§ Visibility from observer

Set your observer location to see the next 7 days of passes ≥ 10°. The values pass through the URL so the page stays shareable.

No JS? Fill the form by hand. The geolocation button needs JavaScript.

§ Radio — SatNOGS DB

ModeDescriptionDownlinkUplink
FM Mode S 2.216 GHz

1 transmitter · refreshed weekly from db.satnogs.org